User: anonymous   Login
Location: Caltech
(34.1382°N, 118.1253°W)
Time: 22:30:13
(UTC-07:00)
Language:

Cosmos 2219 - Orbit

View from above orbital plane
View from above orbital plane
View from above satellite
View from above satellite

Ground track
Ground track

The orbit data is extracted from the following two-line orbital elements,

1 22219U 92076A   17117.88790547 -.00000004 +00000-0 +22729-4 0  9996
2 22219 071.0609 302.7844 0016043 106.8814 253.4069 14.13617308260787
Epoch (UTC): 27 April 2017 21:18:35
Eccentricity: 0.0016043
inclination: 71.0609°
perigee height: 835 km
apogee height: 858 km
right ascension of ascending node: 302.7844°
argument of perigee: 106.8814°
revolutions per day: 14.13617308
mean anomaly at epoch: 253.4069°
orbit number at epoch: 26078

The dashed part of the orbit path shows where the satellite is in the earth's shadow,  

DLR